Scottsbluff, NE

3:44 AM MST on November 15, 2019 (GMT -0700)
Heilig

Weather History for KBFF - September, 2019

Change the Weather History Date:

Thursday, September 5, 2019

  Actual Average Record
Temperature  
Mean Temperature 77 °F -  
Max Temperature 95 °F 86 °F 102 °F (1998)
Min Temperature 59 °F 52 °F 34 °F (1898)
Cooling Degree Days 12    
Growing Degree Days 27 (Base 50)    
Moisture  
Dew Point 56 °F    
Average Humidity 55    
Maximum Humidity 93    
Minimum Humidity 23    
Precipitation  
Precipitation 0.00 in - - ()
Sea Level Pressure  
Sea Level Pressure 29.99 in    
Wind  
Wind Speed 8 mph (NNE)    
Max Wind Speed 14 mph    
Max Gust Speed -    
Visibility 10 miles    
Events      
Averages and records for this station are not official NWS values.
T = Trace of Precipitation, MM = Missing Value Source: NWS Daily Summary

Daily Weather History Graph

Daily Weather History Graph

Search for Another Location

Airport or City:

Astronomy

Sep. 05, 2019 Rise Set
Actual Time 6:24 AM MDT 7:21 PM MDT
Civil Twilight 5:55 AM MDT 7:49 PM MDT
Nautical Twilight 5:21 AM MDT 8:23 PM MDT
Astronomical Twilight 4:46 AM MDT 8:58 PM MDT
Moon 1:39 PM MDT (9/5) 11:32 PM MDT (9/5)
Length of Visible Light 13h 54m
Length of Day
12h 57m
Waxing Crescent, 46% of the Moon is Illuminated
Sep 5
Waxing Crescent
Sep 5
First Quarter
Sep 13
Full
Sep 21
Last Quarter
Sep 28
New

Hourly Weather History & Observations

Time (MDT) Temp. Heat Index Dew Point Humidity Pressure Visibility Wind Dir Wind Speed Gust Speed Precip Events Conditions
12:53 AM 66.9 °F - 62.1 °F 84% 29.89 in 10.0 mi ENE 6.9 mph - N/A   Clear
1:53 AM 64.0 °F - 60.1 °F 87% 29.89 in 10.0 mi Calm Calm - N/A   Clear
2:53 AM 61.0 °F - 59.0 °F 93% 29.89 in 10.0 mi North 4.6 mph - N/A   Clear
3:53 AM 60.1 °F - 57.9 °F 93% 29.90 in 10.0 mi NNW 6.9 mph - N/A   Clear
4:53 AM 61.0 °F - 55.9 °F 83% 29.91 in 10.0 mi NW 9.2 mph - N/A   Clear
5:53 AM 61.0 °F - 55.9 °F 83% 29.93 in 10.0 mi NW 10.4 mph - N/A   Clear
6:53 AM 60.1 °F - 55.9 °F 86% 29.96 in 10.0 mi NW 8.1 mph - N/A   Clear
7:53 AM 64.0 °F - 55.9 °F 75% 29.98 in 10.0 mi WNW 8.1 mph - N/A   Clear
8:53 AM 71.1 °F - 57.0 °F 61% 29.99 in 10.0 mi NNW 10.4 mph - N/A   Clear
9:53 AM 80.1 °F 79.9 °F 53.1 °F 39% 29.99 in 10.0 mi WNW 10.4 mph - N/A   Clear
10:53 AM 86.0 °F 84.9 °F 57.0 °F 37% 29.99 in 10.0 mi WNW 8.1 mph - N/A   Clear
11:53 AM 90.0 °F 88.6 °F 57.0 °F 33% 29.98 in 10.0 mi WNW 6.9 mph - N/A   Clear
12:53 PM 93.9 °F 92.6 °F 57.0 °F 29% 29.98 in 10.0 mi ENE 10.4 mph - N/A   Clear
1:53 PM 95.0 °F 93.4 °F 55.9 °F 27% 29.99 in 10.0 mi ENE 10.4 mph - N/A   Clear
2:53 PM 95.0 °F 93.0 °F 55.0 °F 26% 29.98 in 10.0 mi ENE 10.4 mph - N/A   Clear
3:53 PM 93.9 °F 92.6 °F 57.0 °F 29% 29.99 in 10.0 mi ENE 12.7 mph - N/A   Clear
4:53 PM 91.9 °F 90.3 °F 55.9 °F 30% 29.99 in 10.0 mi ENE 13.8 mph - N/A   Clear
5:53 PM 88.0 °F 86.7 °F 57.0 °F 35% 30.01 in 10.0 mi NE 12.7 mph - N/A   Clear
6:53 PM 82.0 °F 81.6 °F 55.9 °F 41% 30.04 in 10.0 mi ENE 10.4 mph - N/A   Clear
7:53 PM 77.0 °F - 55.0 °F 47% 30.06 in 10.0 mi ENE 10.4 mph - N/A   Clear
8:53 PM 73.0 °F - 55.0 °F 53% 30.09 in 10.0 mi East 6.9 mph - N/A   Clear
9:53 PM 71.1 °F - 54.0 °F 55% 30.08 in 10.0 mi ENE 8.1 mph - N/A   Clear
10:53 PM 69.1 °F - 54.0 °F 58% 30.10 in 10.0 mi East 5.8 mph - N/A   Clear
11:53 PM 66.0 °F - 55.0 °F 68% 30.14 in 10.0 mi SSW 6.9 mph - N/A   Clear